Погода в Кастри

Сент-Люсия     14°00′35″N   60°59′18″W
темп.,
°C
ветер,
м/с
пор.,
м/с
влажн.,
%
обл.,
%
осадки,
мм/ч
давл.,
гПа
погр.,
м
10 апреля, сб
сб1023:00+25всв577871 0.0 1015703
02:00+25всв578199 0.2 1013640
05:00+24всв4684100 0.4 1013488
08:00+26всв5679100 0.9 1014768
11:00+27всв6674100 0.4 1015863
14:00+26св7777100 0.9 1012790
17:00+25св7881100 0.7 1012732
20:00+25св7981100 1.2 1013808
11 апреля, вс
вс1123:00+25св787992 0.2 1013903
02:00+25св787953 0.3 1011802
05:00+25св7878100 0.1 1012872
08:00+25св777670 0.1 1013814
11:00+27св7771100 0.1 1014902
14:00+26св777172 0.1 1012890
17:00+26св777430 0.0 1012869
20:00+25всв687792 0.1 1013759
12 апреля, пн
пн1223:00+25всв687937 0.0 1014741
02:00+25в588260 0.1 1012582
05:00+25в588350 0.2 1013575
08:00+26в677826 0.6 1015735
11:00+27всв6773100 0.3 1015844
14:00+27всв677399 1.4 1012849
17:00+26в677971 1.1 1012764
20:00+25в588592 1.9 1014579
13 апреля, вт
вт1323:00+25в588598 0.1 1014610
02:00+25вюв578577 0.4 1012522
05:00+25вюв5885100 2.0 1013508
08:00+27вюв5776100 2.9 1014665
11:00+28вюв5668100 0.6 1015600
14:00+28вюв4673100 0.8 1012493
17:00+27вюв4679100 0.4 1012562
20:00+26вюв3684100 0.8 1014443
14 апреля, ср
ср1423:00+26вюв358570 1.1 1014404
02:00+25вюв3687100 2.7 1013343
05:00+25вюв478499 0.5 1013445
08:00+26вюв578191 2.4 1015658
11:00+27вюв6774100 1.0 1015710
14:00+27вюв6876100 2.3 1013897
17:00+26в7978100 0.3 1013845
20:00+26вюв81181100 0.3 1014785